TIANQI 33

Last updated on Sun Jan 19 2025 00:02:03 GMT+0000 (Coordinated Universal Time)

1 62365U 24245A 25018.66810423 .00000749 00000+0 52098-3 0 9991 2 62365 44.9838 90.9719 0007982 119.1405 241.0230 14.07230554 4302
UTC large
Height (km)
Speed (km/s)
/
Latitude / Longitude
Inclination (degrees)
Orbital Period (minutes)
Azimuth
Elevation
Range (km)
Doppler Factor

Next 0 passes for location: London (51.5072 / 0.1276)

Sorry there are no passes over London.